Location: Helsinki
(60.1699°N, 24.9384°E)
Time: 23:57:31
(UTC+02:00)

Altair - Pass Details

Date: 05 November 2020
Orbit: 1502 x 1682 km, 47.2° (Epoch: 25 November)

Event Time Altitude Azimuth Distance (km) Brightness Sun altitude
Rises 10:48:40 0° 277° (W) 4,739 9.8 12.5°
Reaches altitude 10° 10:55:35 10° 242° (WSW) 3,802 9.8 12.7°
Maximum altitude 10:57:10 11° 233° (SW) 3,773 9.9 12.8°
Drops below altitude 10° 10:58:46 10° 223° (SW) 3,824 10.1 12.8°
Sets 11:05:54 0° 189° (S) 4,855 11.5 13.1°
